STARLINK-36171

Last updated on Fri Dec 19 2025 00:02:09 GMT+0000 (Coordinated Universal Time)

1 67027U 25293AA 25351.83335648 -.01197601 45322-3 -24887-2 0 9996 2 67027 69.9925 308.9863 0004072 268.6099 151.7398 15.98936546 2387
UTC large
Height (km)
Speed (km/s)
/
Latitude / Longitude
Inclination (degrees)
Orbital Period (minutes)
Azimuth
Elevation
Range (km)
Doppler Factor

Next 0 passes for location: London (51.5072 / 0.1276)

Sorry there are no passes over London.